sat.trackr.live / text

‹ back to catalog

GAOFEN-4

NORAD 41194 · 2015-083A

PAYLOAD ACTIVE UNKNOWN

§ Identity

Operator
Country
PRC
Launch date
2015-12-28
Launch site
XICLF
Launch vehicle
Mass (kg)
RCS (m²)
22.13

Purposes: comms, earth_obs

External: N2YO · Heavens-Above · Gunter

§ Orbital elements

Epoch: 2026-09-20T02:01:36.720192Z

Period
1,436.06 min
Inclination
0.5954°
Eccentricity
0.0003208
Mean motion
1.00274572 rev/d
Perigee alt
35,772.3 km
Apogee alt
35,799.3 km
Semi-major
42,164.0 km
B*
0.0000e+0
RAAN
83.2428°
Arg perigee
134.1754°
Mean anomaly
277.6826°
Rev number
3,948

§ Raw data

GAOFEN-41 41194U 15083A   26263.08445278 -.00000339  00000+0  00000+0 0  99972 41194   0.5954  83.2428 0003208 134.1754 277.6826  1.00274572 39489

JSON: /api/v1/satellites/41194 · /tle

For live sub-satellite position, see the globe view (requires WebGL).

§ Visibility from observer

Set your observer location to see the next 7 days of passes ≥ 10°. The values pass through the URL so the page stays shareable.

No JS? Fill the form by hand. The geolocation button needs JavaScript.